Location: Bretagne
(43.8474°N, 0.4650°W)
Time: 03:47:15
(UTC+00:00)

Envisat - Pass Details

Date: 14 March 2026
Orbit: 761 x 762 km, 98.4° (Epoch: 17 April)

Event Time Altitude Azimuth Distance (km) Brightness Sun altitude
Rises 03:22:31 0° 7° (N) 3,235 6.7 -31.0°
Reaches altitude 10° 03:24:54 10° 0° (N) 2,304 5.8 -30.6°
Enters shadow 03:27:05 24° 347° (NNW) 1,542 4.6 -30.2°
